Cork, Ireland

4:57 PM IST on June 27, 2017 (GMT +0100)
Cork

Weather History for EICK - March, 2013

Change the Weather History Date:

Tuesday, March 5, 2013

  Actual Average Record
Temperature  
Mean Temperature 42 °F -  
Max Temperature 46 °F 50 °F 51 °F (1997)
Min Temperature 38 °F 38 °F 33 °F (2001)
Degree Days  
Heating Degree Days 23    
Moisture  
Dew Point 40 °F    
Average Humidity 93    
Maximum Humidity 100    
Minimum Humidity 76    
Precipitation  
Precipitation 0.04 in 0.12 in - ()
Sea Level Pressure  
Sea Level Pressure 29.53 in    
Wind  
Wind Speed 13 mph ()    
Max Wind Speed 22 mph    
Max Gust Speed 30 mph    
Visibility 2.2 miles    
Events Rain    
Averages and records for this station are not official NWS values.
T = Trace of Precipitation, MM = Missing Value Source: Averaged Metar Reports

Daily Weather History Graph

Daily Weather History Graph

Search for Another Location

Airport or City:

Trip Planner

Search our weather history database for the weather conditions in past years. The results will help you decide how hot, cold, wet, or windy it might be!

Date:

Astronomy

Mar. 05, 2013 Rise Set
Actual Time 7:10 AM GMT 6:21 PM GMT
Civil Twilight 6:36 AM GMT 6:54 PM GMT
Nautical Twilight 5:58 AM GMT 7:33 PM GMT
Astronomical Twilight 5:18 AM GMT 8:13 PM GMT
Moon 2:41 AM GMT (3/5) 11:13 AM GMT (3/5)
Length of Visible Light 12h 17m
Length of Day
11h 10m
Last Quarter, 43% of the Moon is Illuminated
Mar 5
Last Quarter
Mar 11
New
Mar 19
First Quarter
Mar 27
Full
Apr 3
Last Quarter

Hourly Weather History & Observations

Time (GMT) Temp. Windchill Dew Point Humidity Pressure Visibility Wind Dir Wind Speed Gust Speed Precip Events Conditions
12:00 AM 41 °F - 40 °F 92% 29.68 in 2 mi East 13.4 mph - -   Mist
12:00 AM 41.0 °F 33.9 °F 39.2 °F 93% 29.65 in 1.9 mi East 12.7 mph - N/A   Mostly Cloudy
12:30 AM 41.0 °F 33.9 °F 39.2 °F 93% 29.62 in 1.9 mi East 12.7 mph - N/A   Mostly Cloudy
1:00 AM 39.2 °F 32.0 °F 39.2 °F 100% 29.62 in 1.9 mi East 11.5 mph - N/A   Mostly Cloudy
1:30 AM 39.2 °F 32.5 °F 37.4 °F 93% 29.62 in 1.9 mi East 10.4 mph - N/A   Mostly Cloudy
2:00 AM 39.2 °F 33.0 °F 37.4 °F 93% 29.62 in 1.9 mi East 9.2 mph - N/A   Mostly Cloudy
2:30 AM 39.2 °F 33.0 °F 37.4 °F 93% 29.62 in 1.9 mi ENE 9.2 mph - N/A   Mostly Cloudy
3:00 AM 39.2 °F 33.0 °F 37.4 °F 93% 29.59 in 1.9 mi East 9.2 mph - N/A   Mostly Cloudy
3:30 AM 39.2 °F 32.5 °F 37.4 °F 93% 29.59 in 1.9 mi East 10.4 mph - N/A   Mostly Cloudy
4:00 AM 39.2 °F 32.0 °F 39.2 °F 100% 29.59 in 1.9 mi East 11.5 mph - N/A   Mostly Cloudy
4:30 AM 39.2 °F 32.0 °F 39.2 °F 100% 29.59 in 1.9 mi ENE 11.5 mph - N/A   Mostly Cloudy
5:00 AM 39.2 °F 32.0 °F 39.2 °F 100% 29.59 in 1.9 mi ENE 11.5 mph - N/A   Mostly Cloudy
5:30 AM 39.2 °F 32.0 °F 39.2 °F 100% 29.56 in 1.9 mi ENE 11.5 mph - N/A   Mostly Cloudy
6:00 AM 39 °F - 39 °F 98% 29.60 in 2 mi ENE 13.4 mph - -   Mist
6:00 AM 39.2 °F 31.6 °F 39.2 °F 100% 29.56 in 1.9 mi ENE 12.7 mph - N/A   Mostly Cloudy
6:30 AM 39.2 °F 30.8 °F 39.2 °F 100% 29.56 in 1.9 mi ENE 15.0 mph - N/A   Mostly Cloudy
7:00 AM 39.2 °F 30.5 °F 39.2 °F 100% 29.56 in 1.9 mi East 16.1 mph - N/A   Mostly Cloudy
7:30 AM 39.2 °F 30.5 °F 37.4 °F 93% 29.56 in 1.9 mi East 16.1 mph - N/A   Mostly Cloudy
8:00 AM 39.2 °F 29.8 °F 39.2 °F 100% 29.56 in 1.9 mi East 18.4 mph - N/A   Mostly Cloudy
8:30 AM 39.2 °F 30.8 °F 39.2 °F 100% 29.56 in 1.9 mi East 15.0 mph - N/A   Mostly Cloudy
9:00 AM 39.2 °F 30.8 °F 39.2 °F 100% 29.56 in - East 15.0 mph - N/A   Mostly Cloudy
9:30 AM 41.0 °F 32.2 °F 39.2 °F 93% 29.56 in 1.9 mi East 18.4 mph - N/A   Mostly Cloudy
10:00 AM 41.0 °F 32.5 °F 39.2 °F 93% 29.56 in - East 17.3 mph - N/A   Mostly Cloudy
10:30 AM 41.0 °F 32.2 °F 41.0 °F 100% 29.56 in - East 18.4 mph - N/A   Mostly Cloudy
11:00 AM 42.8 °F 33.8 °F 41.0 °F 93% 29.53 in 1.9 mi East 21.9 mph - N/A   Mostly Cloudy
11:30 AM 42.8 °F 34.5 °F 41.0 °F 93% 29.53 in 2.2 mi East 18.4 mph - N/A   Mostly Cloudy
12:00 PM 44 °F - 41 °F 84% 29.55 in 2 mi East 17.9 mph - -   Mist
12:00 PM 44.6 °F 36.9 °F 41.0 °F 87% 29.53 in 1.9 mi East 18.4 mph 29.9 mph N/A   Mostly Cloudy
12:30 PM 46.4 °F 38.7 °F 41.0 °F 81% 29.50 in 2.8 mi East 20.7 mph - N/A   Mostly Cloudy
1:00 PM 46.4 °F 38.7 °F 41.0 °F 81% 29.50 in 2.8 mi East 20.7 mph - N/A   Mostly Cloudy
1:30 PM 46.4 °F 39.2 °F 39.2 °F 76% 29.50 in 3.7 mi East 18.4 mph - N/A   Mostly Cloudy
2:00 PM 44.6 °F 36.1 °F 39.2 °F 81% 29.50 in 3.1 mi East 21.9 mph - N/A Rain Light Rain
2:30 PM 44.6 °F 37.2 °F 41.0 °F 87% 29.47 in 2.8 mi East 17.3 mph - N/A Rain Light Rain
3:00 PM 42.8 °F 35.1 °F 41.0 °F 93% 29.47 in - East 16.1 mph - N/A Rain Light Rain
3:30 PM 42.8 °F 35.1 °F 41.0 °F 93% 29.47 in 1.5 mi East 16.1 mph - N/A Rain Light Rain
4:00 PM 42.8 °F 35.4 °F 41.0 °F 93% 29.47 in 1.7 mi East 15.0 mph - N/A   Mostly Cloudy
4:30 PM 42.8 °F 35.8 °F 41.0 °F 93% 29.47 in - East 13.8 mph - N/A   Mostly Cloudy
5:00 PM 42.8 °F 35.1 °F 41.0 °F 93% 29.47 in - East 16.1 mph - N/A Rain Light Rain
5:30 PM 42.8 °F 35.1 °F 41.0 °F 93% 29.47 in - East 16.1 mph - N/A Rain Light Rain
6:00 PM 43 °F - 41 °F 89% 29.49 in 2 mi East 17.9 mph - - Rain Light Rain
6:00 PM 42.8 °F 34.8 °F 41.0 °F 93% 29.47 in - East 17.3 mph - N/A Rain Light Rain
6:30 PM 42.8 °F 35.1 °F 41.0 °F 93% 29.47 in - East 16.1 mph - N/A Rain Light Rain
7:00 PM 42.8 °F 35.1 °F 41.0 °F 93% 29.47 in 2.2 mi East 16.1 mph - N/A Rain Light Rain
7:30 PM 42.8 °F 35.1 °F 41.0 °F 93% 29.47 in 2.8 mi East 16.1 mph - N/A Rain Light Rain
8:00 PM 42.8 °F 34.8 °F 39.2 °F 87% 29.47 in 3.1 mi East 17.3 mph - N/A Rain Light Rain
8:30 PM 42.8 °F 35.1 °F 41.0 °F 93% 29.47 in 3.1 mi East 16.1 mph - N/A Rain Light Rain
9:00 PM 42.8 °F 35.4 °F 41.0 °F 93% 29.47 in 3.7 mi East 15.0 mph - N/A   Mostly Cloudy
9:30 PM 42.8 °F 34.8 °F 41.0 °F 93% 29.47 in 3.7 mi East 17.3 mph - N/A Rain Light Rain
10:00 PM 42.8 °F 34.8 °F 42.8 °F 100% 29.44 in 3.7 mi East 17.3 mph - N/A Rain Light Rain
10:30 PM 42.8 °F 35.1 °F 42.8 °F 100% 29.44 in 2.8 mi East 16.1 mph - N/A Rain Light Rain
11:00 PM 42.8 °F 34.5 °F 42.8 °F 100% 29.44 in 1.2 mi East 18.4 mph - N/A   Light Drizzle
11:30 PM 44.6 °F 37.8 °F 42.8 °F 93% 29.44 in 1.2 mi East 15.0 mph - N/A Rain Light Rain